FENGYUN 1C DEB, 31634

Orbit data source: Space-Track

FENGYUN 1C DEB, 31634 is space debris in SSO originally from a launch on Mon, 10 May 1999 UTC launched from the Taiyaun Space Center, China (TSC). Fengyun 1C debris stems from the Chinese weather satellite Fengyun-1C, which was intentionally destroyed by a Chinese anti-satellite missile in 2007. This event dramatically increased the amount of space debris, with thousands of trackable fragments posing hazards to satellites and human spaceflight. The Fengyun 1C debris cloud has become a focal point in discussions about space sustainability and the need for international regulations to prevent the creation of new debris.

Loading next visibility...
Identifier
31634, 1999-025CAQ
Orbit
SSO
Country
Flag of CNCN / PRC
Related business
Manufacturer
Unknown
Mission
Spacecraft
Bus & Motor
Unknown
Mass
Unknown
Launch date (UTC)
1999-05-10 (27 years ago)
Launch vehicle
Unknown
Launch site
Taiyaun Space Center, China (TSC)
Object type
Payload
Rocket body
Debris
Shape & HBR
Unknown shape, 0.1 m
Radar Cross Section
Small (<0.1 m²)

Expand to show TLE details & history
Last TLE update: 1 week ago

TLE from 1 week ago
0 FENGYUN 1C DEB
1 31634U 99025CAQ 26200.42619217  .00000270  00000-0  22838-3 0  9999
2 31634  99.3391 254.7844 0089976 285.6173  73.5072 13.94847902595727
Epoch: 2026-07-19T10:13Z
TLE epoch observation values (Epoch: 2026-07-19T10:13:43.003Z)
Latitude
-0.00001°
Longitude
164.13046°
Altitude
896.471 km
Speed
7.413 km/s
True Right ascension
16h 59m 08s
True Declination
0° 00' 00"
Sunlit
Object was in full shadow at epoch
Visualization orbit readout
Latitude
Unknown
Longitude
Unknown
Altitude
Unknown
Speed
Unknown
Apparent Right ascension
Unknown
Apparent Declination
Unknown
Sunlit
N/A
Visualization observer readout
Local Sidereal Time
00:29:33
Azimuth
Unknown
Elevation
Unknown
Doppler factor
Unknown
Orbital elements
Apogee altitude
974.48 km
Perigee altitude
843.348 km
Semi-major axis
7,287.051 km
Eccentricity
0.009
Inclination
99.3391°
RAAN
254.7844°
Arg. of periapsis
285.6173°
True anomaly
74.49894°
Mean anomaly
73.5072°
Eccentric anomaly
74.00276°
Mean motion
3.48912 °/min
Orbital period
103.18 mins
BSTAR
0.00022838
Loading maneuver chart data...
Computing Atmospheric mass density...

Documentation

Showing up to 5 results
|